Regional Weather Roundup
Issued by NWS

Home | Current Version | Previous Version | Text Only | Print | Product List | Glossary Off
Versions: 1 2 3 4 5 6 7 8 9 10 11 12 13 14 15 16 17 18 19 20 21 22 23 24 25 26 27 28 29 30 31 32 33 34 35 36 37 38 39 40 41 42 43 44 45 46 47 48 49 50

000
ASUS43 KOAX 190110
RWRNE

WEATHER ROUNDUP FOR NEBRASKA
NATIONAL WEATHER SERVICE OMAHA NE
700 PM CST THU JAN 18 2018

NOTES: SATELLITE DATA IS BEING USED TO AUGMENT CLOUD COVER ABOVE
       12000 FEET.
       "FAIR" INDICATES FEW OR NO CLOUDS BELOW 12,000 FEET WITH NO
       SIGNIFICANT WEATHER AND/OR OBSTRUCTIONS TO VISIBILITY.


NEZ001>004-019>022-054>056-190200-
NEBRASKA PANHANDLE

CITY           SKY/WX    TMP DP  RH WIND       PRES   REMARKS
SCOTTSBLUFF    CLOUDY    44  31  60 NW9       29.89R
ALLIANCE       MOCLDY    37  31  78 W6        29.86F WCI  32
CHADRON        CLOUDY    36  29  75 CALM      29.83F
GORDON         FAIR      42  32  67 SW9       29.83S
KIMBALL        CLOUDY    42  26  52 W6        29.93F
SIDNEY         CLOUDY    35  22  58 SW9       29.92S WCI  28
$$

NEZ057>060-069>072-079>082-190200-
SOUTHWEST NEBRASKA

CITY           SKY/WX    TMP DP  RH WIND       PRES   REMARKS
NORTH PLATTE   CLOUDY    33  26  75 CALM      29.90S
IMPERIAL       CLOUDY    38  26  62 S5        29.91F WCI  34
LEXINGTON      MOCLDY    37  29  72 S6        29.90F WCI  32
MCCOOK         CLOUDY    43  25  49 CALM      29.92F
OGALLALA       CLOUDY    40  26  57 W3        29.90S
$$

NEZ005>010-023>029-035>040-094-190200-
NORTH CENTRAL NEBRASKA

CITY           SKY/WX    TMP DP  RH WIND       PRES   REMARKS
VALENTINE      CLOUDY    38  29  70 W7        29.82S WCI  33
AINSWORTH      CLOUDY    36  31  82 SW6       29.83S WCI  31
BROKEN BOW     MOCLDY    41  29  62 SW3       29.88R
O`NEILL        MOCLDY    33  30  88 S5        29.83S WCI  29
ORD            MOCLDY    33  28  81 S5        29.86S WCI  29
THEDFORD       CLOUDY    40  32  71 SW5       29.87S
$$

NEZ041-046>049-061>064-073>077-083>087-190200-
SOUTH CENTRAL NEBRASKA

CITY           SKY/WX    TMP DP  RH WIND       PRES   REMARKS
GRAND ISLAND   CLOUDY    36  30  79 SW9       29.90F WCI  29
AURORA         CLOUDY    34  29  82 SW6       29.90F WCI  29
HASTINGS       CLOUDY    39  27  62 SW6       29.91F WCI  35
HEBRON         CLOUDY    38  28  67 S9        29.94S WCI  32
HOLDREGE       CLOUDY    40  26  58 CALM      29.92S
KEARNEY        CLOUDY    40  28  62 SW10      29.91F WCI  33
YORK           CLOUDY    34  32  93 SW8       29.91F WCI  27
$$

NEZ011>018-030>034-042>045-190200-
NORTHEAST NEBRASKA

CITY           SKY/WX    TMP DP  RH WIND       PRES   REMARKS
NORFOLK        CLOUDY    33  29  85 S8        29.84S WCI  26
ALBION         CLOUDY    35  29  78 CALM      29.87S
BLAIR          CLOUDY    32  25  74 S10       29.93R WCI  24
COLUMBUS       CLOUDY    37  29  72 S7        29.90F WCI  32
FREMONT        CLOUDY    35  27  71 S8        29.92S WCI  29
TEKAMAH        CLOUDY    31  24  75 S12       29.90F WCI  22
WAYNE          CLOUDY    33  31  92 SW6       29.86R WCI  27
$$

NEZ050>053-065>068-078-088>093-190200-
SOUTHEAST NEBRASKA

CITY           SKY/WX    TMP DP  RH WIND       PRES   REMARKS
LINCOLN        CLOUDY    30  23  75 S7        29.95S WCI  23
OMAHA EPPLEY   CLOUDY    29  21  72 S10       29.96R WCI  20
BEATRICE       CLOUDY    34  26  70 S9        29.96S WCI  27
FALLS CITY     CLOUDY    35  25  66 S9        29.99S WCI  28
NEBRASKA CITY  CLOUDY    34  26  71 SW13      29.96S WCI  25
PLATTSMOUTH    CLOUDY    30  23  73 S7        29.95S WCI  23
$$

NEZ044-045-051>053-067-190200-
OMAHA AREA

CITY           SKY/WX    TMP DP  RH WIND       PRES   REMARKS
OMAHA EPPLEY   CLOUDY    29  21  72 S10       29.96R WCI  20
BLAIR          CLOUDY    32  25  74 S10       29.93R WCI  24
FREMONT        CLOUDY    35  27  71 S8        29.92S WCI  29
MILLARD        CLOUDY    32  25  74 S6        29.96R WCI  26
OFFUTT AFB     CLOUDY    29  20  70 S3        29.96R
PLATTSMOUTH    CLOUDY    30  23  73 S7        29.95S WCI  23
WAHOO          FAIR      34  25  68 S7        29.93S WCI  28
$$



USA.gov is the U.S. government's official web portal to all federal, state and local government web resources and services.